TimeEST,TemperatureF,Dew PointF,Humidity,Sea Level PressureIn,VisibilityMPH,Wind Direction,Wind SpeedMPH,Gust SpeedMPH,PrecipitationIn,Events,Conditions,WindDirDegrees,DateUTC
12:10 AM,47.7,36.5,65,30.51,10.0,North,3.5,-,N/A,,Overcast,360,2012-11-19 05:10:00
12:35 AM,47.8,36.1,64,30.50,10.0,North,4.6,-,N/A,,Overcast,10,2012-11-19 05:35:00
12:55 AM,47.8,36.1,64,30.49,10.0,NNE,4.6,-,N/A,,Overcast,30,2012-11-19 05:55:00
1:15 AM,47.5,36.1,65,30.48,10.0,NNE,3.5,-,N/A,,Overcast,20,2012-11-19 06:15:00
2:00 AM,47.3,36.3,66,30.48,10.0,North,4.6,-,N/A,,Overcast,360,2012-11-19 07:00:00
2:20 AM,47.3,36.5,66,30.48,10.0,North,4.6,-,N/A,,Overcast,10,2012-11-19 07:20:00
3:05 AM,47.3,36.5,66,30.48,10.0,NNE,3.5,-,N/A,,Overcast,20,2012-11-19 08:05:00
3:25 AM,47.3,36.5,66,30.47,10.0,North,5.8,-,N/A,,Overcast,10,2012-11-19 08:25:00
3:45 AM,47.3,36.5,66,30.46,10.0,North,3.5,-,N/A,,Overcast,10,2012-11-19 08:45:00
4:05 AM,47.3,36.7,67,30.46,10.0,North,4.6,-,N/A,,Overcast,10,2012-11-19 09:05:00
5:30 AM,47.3,36.9,67,30.46,10.0,North,4.6,-,N/A,,Overcast,360,2012-11-19 10:30:00
5:55 AM,46.9,36.9,68,30.46,10.0,North,4.6,-,N/A,,Overcast,360,2012-11-19 10:55:00
6:15 AM,46.9,36.9,68,30.45,10.0,North,3.5,-,N/A,,Overcast,10,2012-11-19 11:15:00
6:35 AM,46.9,37.0,68,30.45,10.0,North,3.5,-,N/A,,Overcast,10,2012-11-19 11:35:00
6:55 AM,46.9,36.9,68,30.45,10.0,NNE,4.6,-,N/A,,Overcast,20,2012-11-19 11:55:00
7:20 AM,46.8,36.7,68,30.45,10.0,North,4.6,-,N/A,,Overcast,10,2012-11-19 12:20:00
8:00 AM,46.9,36.9,68,30.45,10.0,NNE,4.6,-,N/A,,Overcast,20,2012-11-19 13:00:00
8:20 AM,47.5,37.0,67,30.44,10.0,NNE,5.8,-,N/A,,Overcast,30,2012-11-19 13:20:00
8:45 AM,48.2,36.7,64,30.45,10.0,NNE,5.8,-,N/A,,Overcast,20,2012-11-19 13:45:00
9:05 AM,48.2,36.9,65,30.45,10.0,North,6.9,-,N/A,,Overcast,10,2012-11-19 14:05:00
9:25 AM,48.2,37.0,65,30.45,10.0,North,5.8,-,N/A,,Overcast,10,2012-11-19 14:25:00
9:45 AM,48.2,36.9,65,30.44,10.0,North,5.8,-,N/A,,Overcast,10,2012-11-19 14:45:00
10:10 AM,48.6,37.0,64,30.43,10.0,NNE,5.8,-,N/A,,Overcast,20,2012-11-19 15:10:00
10:30 AM,49.6,37.4,63,30.43,10.0,NNE,6.9,-,N/A,,Overcast,30,2012-11-19 15:30:00
10:50 AM,50.9,37.8,61,30.42,10.0,NNE,6.9,-,N/A,,Overcast,20,2012-11-19 15:50:00
11:10 AM,50.9,37.6,60,30.41,10.0,North,8.1,-,N/A,,Overcast,360,2012-11-19 16:10:00
11:55 AM,52.2,37.6,58,30.39,10.0,NNE,5.8,-,N/A,,Overcast,20,2012-11-19 16:55:00
12:15 PM,52.3,37.8,58,30.38,10.0,North,6.9,-,N/A,,Overcast,360,2012-11-19 17:15:00
12:35 PM,53.1,37.8,56,30.37,10.0,North,6.9,-,N/A,,Overcast,10,2012-11-19 17:35:00
1:00 PM,54.0,37.8,54,30.34,10.0,North,5.8,-,N/A,,Overcast,10,2012-11-19 18:00:00
1:20 PM,54.5,37.9,54,30.33,10.0,NNE,5.8,-,N/A,,Mostly Cloudy,30,2012-11-19 18:20:00
1:40 PM,55.9,37.8,51,30.32,10.0,North,9.2,-,N/A,,Clear,10,2012-11-19 18:40:00
2:00 PM,56.1,37.6,50,30.32,10.0,North,4.6,-,N/A,,Scattered Clouds,360,2012-11-19 19:00:00
2:25 PM,55.6,37.4,50,30.32,10.0,North,4.6,-,N/A,,Overcast,10,2012-11-19 19:25:00
2:45 PM,55.6,37.6,51,30.32,10.0,North,5.8,-,N/A,,Overcast,360,2012-11-19 19:45:00
3:05 PM,55.4,37.4,51,30.32,10.0,North,5.8,-,N/A,,Overcast,360,2012-11-19 20:05:00
3:25 PM,55.4,37.6,51,30.31,10.0,NNW,6.9,-,N/A,,Mostly Cloudy,330,2012-11-19 20:25:00
3:50 PM,55.0,37.6,52,30.31,10.0,NNW,5.8,-,N/A,,Scattered Clouds,340,2012-11-19 20:50:00
4:10 PM,54.1,37.0,52,30.30,10.0,NW,6.9,-,N/A,,Scattered Clouds,320,2012-11-19 21:10:00
4:30 PM,53.2,37.0,54,30.30,10.0,NNW,3.5,-,N/A,,Scattered Clouds,340,2012-11-19 21:30:00
4:50 PM,52.3,37.2,56,30.31,10.0,Calm,Calm,-,N/A,,Mostly Cloudy,0,2012-11-19 21:50:00
5:15 PM,52.2,37.0,56,30.30,10.0,NNW,4.6,-,N/A,,Overcast,340,2012-11-19 22:15:00
5:35 PM,51.3,37.0,58,30.30,10.0,North,3.5,-,N/A,,Overcast,350,2012-11-19 22:35:00
5:55 PM,50.9,36.7,58,30.30,10.0,North,3.5,-,N/A,,Scattered Clouds,350,2012-11-19 22:55:00
6:15 PM,50.0,36.9,61,30.30,10.0,North,3.5,-,N/A,,Mostly Cloudy,360,2012-11-19 23:15:00
6:40 PM,48.6,38.3,68,30.30,10.0,Calm,Calm,-,N/A,,Overcast,0,2012-11-19 23:40:00
7:00 PM,50.0,36.7,60,30.30,10.0,North,4.6,-,N/A,,Overcast,360,2012-11-20 00:00:00
7:20 PM,49.6,35.8,59,30.29,10.0,NNW,4.6,-,N/A,,Overcast,340,2012-11-20 00:20:00
7:40 PM,49.5,35.2,58,30.29,10.0,North,3.5,-,N/A,,Overcast,360,2012-11-20 00:40:00
8:05 PM,49.6,34.0,55,30.29,10.0,Calm,Calm,-,N/A,,Overcast,0,2012-11-20 01:05:00
9:05 PM,49.1,33.8,56,30.28,10.0,NNW,3.5,-,N/A,,Overcast,340,2012-11-20 02:05:00
9:30 PM,47.8,33.4,57,30.26,10.0,Calm,Calm,-,N/A,,Scattered Clouds,0,2012-11-20 02:30:00
9:50 PM,47.1,33.6,59,30.26,10.0,Calm,Calm,-,N/A,,Clear,0,2012-11-20 02:50:00
10:10 PM,43.9,34.0,68,30.25,10.0,Calm,Calm,-,N/A,,Clear,0,2012-11-20 03:10:00
10:30 PM,43.0,33.8,70,30.25,10.0,Calm,Calm,-,N/A,,Clear,0,2012-11-20 03:30:00
10:55 PM,40.6,34.0,77,30.25,10.0,Calm,Calm,-,N/A,,Clear,0,2012-11-20 03:55:00
11:15 PM,40.5,36.1,85,30.25,10.0,Calm,Calm,-,N/A,,Scattered Clouds,0,2012-11-20 04:15:00
11:35 PM,41.5,35.1,78,30.24,10.0,Calm,Calm,-,N/A,,Overcast,0,2012-11-20 04:35:00
11:55 PM,41.2,34.9,78,30.23,10.0,Calm,Calm,-,N/A,,Mostly Cloudy,0,2012-11-20 04:55:00